| time (UTC) | temp F | wind direction | speed MPH | gust MPH | rain 1hr in | rain 24hr in | rain mn in | humidity % | barometer mb |
| 20260506144729 | 49 | 338 | 0.0 | 2.0 | 0.00 | 0.13 | 0.06 | 94 | 1011.0 |
| 20260506144229 | 49 | 338 | 1.0 | 2.0 | 0.00 | 0.13 | 0.06 | 94 | 1010.9 |
| 20260506143729 | 49 | 0 | 1.0 | 3.0 | 0.00 | 0.13 | 0.06 | 94 | 1010.9 |
| 20260506143231 | 49 | 0 | 1.0 | 3.0 | 0.01 | 0.13 | 0.06 | 94 | 1010.9 |
| 20260506142730 | 48 | 350 | 1.0 | 3.0 | 0.01 | 0.13 | 0.06 | 94 | 1011.1 |
| 20260506141229 | 49 | 350 | 1.0 | 2.0 | 0.02 | 0.13 | 0.06 | 94 | 1011.0 |
| 20260506140728 | 49 | 349 | 1.0 | 2.0 | 0.02 | 0.13 | 0.06 | 94 | 1011.0 |
| 20260506140228 | 49 | 355 | 1.0 | 2.0 | 0.02 | 0.13 | 0.06 | 94 | 1011.0 |
| 20260506135728 | 49 | 355 | 1.0 | 3.0 | 0.02 | 0.13 | 0.06 | 94 | 1011.0 |
| 20260506135228 | 49 | 5 | 2.0 | 3.0 | 0.02 | 0.13 | 0.06 | 94 | 1011.0 |
| 20260506134728 | 49 | 304 | 2.0 | 4.0 | 0.02 | 0.13 | 0.06 | 94 | 1011.4 |
| 20260506134227 | 49 | 336 | 1.0 | 4.0 | 0.02 | 0.13 | 0.06 | 94 | 1011.0 |
| 20260506133728 | 49 | 345 | 1.0 | 3.0 | 0.02 | 0.13 | 0.06 | 94 | 1011.0 |
| 20260506133228 | 49 | 338 | 1.0 | 5.0 | 0.01 | 0.12 | 0.06 | 94 | 1011.1 |
| 20260506131728 | 49 | 338 | 2.0 | 6.0 | 0.00 | 0.11 | 0.04 | 94 | 1011.6 |
| 20260506131228 | 49 | 36 | 1.0 | 3.0 | 0.00 | 0.11 | 0.04 | 94 | 1011.5 |
| 20260506130728 | 49 | 37 | 0.0 | 3.0 | 0.00 | 0.11 | 0.04 | 94 | 1011.3 |
| 20260506130228 | 50 | 345 | 1.0 | 2.0 | 0.00 | 0.11 | 0.04 | 94 | 1011.5 |
| 20260506125228 | 50 | 345 | 1.0 | 2.0 | 0.00 | 0.11 | 0.04 | 94 | 1011.9 |
| 20260506124727 | 50 | 345 | 0.0 | 2.0 | 0.00 | 0.11 | 0.04 | 94 | 1011.6 |
| 20260506123728 | 50 | 345 | 0.0 | 2.0 | 0.00 | 0.11 | 0.04 | 94 | 1011.6 |
| 20260506123229 | 50 | 345 | 0.0 | 2.0 | 0.00 | 0.11 | 0.04 | 94 | 1011.7 |
| 20260506122728 | 50 | 345 | 0.0 | 2.0 | 0.00 | 0.11 | 0.04 | 94 | 1011.9 |
| 20260506122229 | 50 | 345 | 1.0 | 3.0 | 0.00 | 0.11 | 0.04 | 94 | 1011.6 |
| 20260506121728 | 50 | 345 | 1.0 | 3.0 | 0.00 | 0.11 | 0.04 | 94 | 1011.6 |
| 20260506121228 | 50 | 319 | 1.0 | 3.0 | 0.00 | 0.11 | 0.04 | 94 | 1011.8 |
| 20260506120727 | 50 | 348 | 1.0 | 3.0 | 0.00 | 0.11 | 0.04 | 94 | 1012.1 |
| 20260506120227 | 50 | 337 | 2.0 | 4.0 | 0.00 | 0.11 | 0.04 | 94 | 1012.2 |
| 20260506115728 | 50 | 38 | 2.0 | 4.0 | 0.00 | 0.11 | 0.04 | 94 | 1012.0 |
| 20260506114728 | 50 | 351 | 1.0 | 2.0 | 0.00 | 0.11 | 0.04 | 94 | 1011.7 |
| 20260506114229 | 50 | 0 | 1.0 | 2.0 | 0.00 | 0.11 | 0.04 | 94 | 1011.7 |
| 20260506113728 | 50 | 0 | 1.0 | 2.0 | 0.00 | 0.11 | 0.04 | 94 | 1011.6 |
| 20260506113227 | 50 | 0 | 1.0 | 4.0 | 0.00 | 0.11 | 0.04 | 94 | 1011.6 |
| 20260506112728 | 50 | 0 | 1.0 | 4.0 | 0.00 | 0.11 | 0.04 | 94 | 1011.6 |
| 20260506110723 | 51 | 5 | 0.0 | 2.0 | 0.00 | 0.11 | 0.04 | 94 | 1011.7 |
| 20260506110223 | 51 | 5 | 0.0 | 2.0 | 0.00 | 0.11 | 0.04 | 95 | 1011.5 |
| 20260506104721 | 51 | 5 | 1.0 | 2.0 | 0.00 | 0.11 | 0.04 | 94 | 1011.6 |
| 20260506104223 | 51 | 5 | 1.0 | 2.0 | 0.00 | 0.11 | 0.04 | 94 | 1011.6 |
| 20260506103222 | 51 | 5 | 0.0 | 2.0 | 0.00 | 0.11 | 0.04 | 94 | 1011.7 |
| 20260506102721 | 51 | 5 | 1.0 | 3.0 | 0.00 | 0.11 | 0.04 | 94 | 1011.5 |
| 20260506102222 | 51 | 5 | 1.0 | 3.0 | 0.00 | 0.11 | 0.04 | 94 | 1011.6 |
| 20260506101722 | 51 | 331 | 1.0 | 2.0 | 0.00 | 0.11 | 0.04 | 94 | 1011.8 |
| 20260506101222 | 51 | 331 | 1.0 | 3.0 | 0.00 | 0.11 | 0.04 | 94 | 1011.9 |
| 20260506100721 | 51 | 338 | 1.0 | 3.0 | 0.00 | 0.11 | 0.04 | 94 | 1011.8 |
| 20260506100221 | 52 | 337 | 1.0 | 3.0 | 0.00 | 0.11 | 0.04 | 94 | 1011.9 |
| 20260506095722 | 52 | 57 | 1.0 | 5.0 | 0.00 | 0.11 | 0.04 | 94 | 1011.6 |
| 20260506095220 | 52 | 61 | 1.0 | 5.0 | 0.00 | 0.11 | 0.04 | 95 | 1011.6 |
| 20260506094721 | 52 | 355 | 1.0 | 3.0 | 0.00 | 0.11 | 0.04 | 95 | 1012.0 |
| 20260506094221 | 52 | 355 | 1.0 | 3.0 | 0.00 | 0.11 | 0.04 | 94 | 1011.9 |
| 20260506093721 | 52 | 15 | 1.0 | 3.0 | 0.00 | 0.11 | 0.04 | 95 | 1011.8 |
| 20260506092721 | 53 | 5 | 1.0 | 2.0 | 0.00 | 0.11 | 0.04 | 95 | 1011.8 |
| 20260506091221 | 53 | 5 | 1.0 | 3.0 | 0.00 | 0.11 | 0.04 | 94 | 1011.7 |
| 20260506090721 | 53 | 5 | 1.0 | 4.0 | 0.00 | 0.11 | 0.04 | 94 | 1011.5 |
| 20260506090219 | 53 | 63 | 1.0 | 4.0 | 0.00 | 0.11 | 0.04 | 94 | 1011.7 |
| 20260506085719 | 53 | 311 | 1.0 | 2.0 | 0.00 | 0.11 | 0.04 | 94 | 1011.9 |
| 20260506085219 | 53 | 311 | 1.0 | 2.0 | 0.00 | 0.11 | 0.04 | 95 | 1011.7 |
| 20260506084721 | 53 | 311 | 0.0 | 2.0 | 0.00 | 0.11 | 0.04 | 94 | 1012.3 |
| 20260506084220 | 53 | 311 | 0.0 | 1.0 | 0.00 | 0.11 | 0.04 | 94 | 1011.9 |
| 20260506083719 | 53 | 311 | 0.0 | 1.0 | 0.00 | 0.11 | 0.04 | 94 | 1011.6 |
| 20260506083219 | 53 | 311 | 0.0 | 2.0 | 0.00 | 0.11 | 0.04 | 94 | 1011.9 |
| 20260506082719 | 53 | 311 | 1.0 | 2.0 | 0.00 | 0.11 | 0.04 | 94 | 1012.2 |
| 20260506082218 | 53 | 311 | 1.0 | 2.0 | 0.00 | 0.11 | 0.04 | 94 | 1012.1 |
| 20260506081718 | 54 | 305 | 1.0 | 4.0 | 0.00 | 0.11 | 0.04 | 94 | 1012.3 |
| 20260506081218 | 53 | 311 | 1.0 | 4.0 | 0.00 | 0.11 | 0.04 | 94 | 1012.5 |
| 20260506080717 | 53 | 107 | 0.0 | 2.0 | 0.00 | 0.11 | 0.04 | 94 | 1011.9 |
| 20260506073216 | 54 | 107 | 1.0 | 2.0 | 0.00 | 0.11 | 0.04 | 94 | 1011.3 |
| 20260506072715 | 54 | 107 | 0.0 | 2.0 | 0.00 | 0.11 | 0.04 | 94 | 1011.7 |
| 20260506072215 | 54 | 107 | 0.0 | 1.0 | 0.00 | 0.11 | 0.04 | 94 | 1011.5 |
| 20260506071715 | 54 | 107 | 0.0 | 0.0 | 0.00 | 0.11 | 0.04 | 94 | 1011.4 |
| 20260506071215 | 54 | 107 | 0.0 | 1.0 | 0.00 | 0.11 | 0.04 | 94 | 1011.4 |
| 20260506070715 | 54 | 107 | 1.0 | 2.0 | 0.00 | 0.11 | 0.04 | 94 | 1011.6 |
| 20260506070215 | 54 | 107 | 1.0 | 2.0 | 0.00 | 0.11 | 0.04 | 94 | 1011.7 |
| 20260506061214 | 54 | 107 | 0.0 | 1.0 | 0.00 | 0.11 | 0.04 | 93 | 1011.7 |
| 20260506050712 | 54 | 108 | 1.0 | 3.0 | 0.04 | 0.11 | 0.04 | 92 | 1012.2 |
| 20260506050211 | 54 | 108 | 1.0 | 3.0 | 0.04 | 0.11 | 0.04 | 92 | 1012.1 |
| 20260506043711 | 55 | 46 | 1.0 | 2.0 | 0.04 | 0.09 | 0.02 | 90 | 1012.0 |
| 20260506043210 | 55 | 46 | 1.0 | 2.0 | 0.04 | 0.09 | 0.02 | 90 | 1011.4 |
| 20260506042710 | 55 | 46 | 1.0 | 2.0 | 0.04 | 0.09 | 0.02 | 90 | 1011.9 |
| 20260506042208 | 55 | 46 | 1.0 | 3.0 | 0.04 | 0.08 | 0.01 | 90 | 1011.8 |
| 20260506041208 | 55 | 31 | 2.0 | 9.0 | 0.03 | 0.07 | 0.00 | 89 | 1012.1 |
| 20260506040209 | 56 | 5 | 1.0 | 4.0 | 0.03 | 0.07 | 0.00 | 89 | 1012.3 |
| 20260506035707 | 56 | 278 | 0.0 | 2.0 | 0.02 | 0.06 | 0.06 | 89 | 1012.1 |
| 20260506035207 | 57 | 278 | 1.0 | 3.0 | 0.02 | 0.06 | 0.06 | 89 | 1011.6 |
| 20260506034705 | 57 | 278 | 2.0 | 8.0 | 0.02 | 0.06 | 0.06 | 90 | 1011.4 |
| 20260506034205 | 57 | 246 | 3.0 | 8.0 | 0.01 | 0.05 | 0.05 | 90 | 1011.3 |
| 20260506033705 | 57 | 338 | 4.0 | 9.0 | 0.01 | 0.05 | 0.05 | 90 | 1011.1 |
| 20260506033205 | 58 | 262 | 3.0 | 11.0 | 0.01 | 0.05 | 0.05 | 91 | 1010.7 |
| 20260506032706 | 58 | 331 | 2.0 | 11.0 | 0.01 | 0.05 | 0.05 | 92 | 1010.6 |
| 20260506032206 | 58 | 325 | 1.0 | 5.0 | 0.00 | 0.04 | 0.04 | 92 | 1010.6 |
| 20260506031705 | 58 | 9 | 1.0 | 5.0 | 0.00 | 0.04 | 0.04 | 92 | 1010.1 |
| 20260506031206 | 58 | 342 | 1.0 | 3.0 | 0.00 | 0.04 | 0.04 | 92 | 1010.2 |
| 20260506030705 | 58 | 342 | 1.0 | 3.0 | 0.00 | 0.04 | 0.04 | 91 | 1010.1 |
| 20260506030206 | 58 | 9 | 1.0 | 4.0 | 0.00 | 0.04 | 0.04 | 91 | 1010.1 |
| 20260506025706 | 58 | 5 | 1.0 | 4.0 | 0.00 | 0.04 | 0.04 | 91 | 1010.2 |
| 20260506025205 | 58 | 5 | 0.0 | 3.0 | 0.00 | 0.04 | 0.04 | 91 | 1010.2 |
| 20260506024206 | 58 | 9 | 0.0 | 3.0 | 0.00 | 0.04 | 0.04 | 91 | 1010.1 |
| 20260506023706 | 58 | 9 | 0.0 | 3.0 | 0.00 | 0.04 | 0.04 | 91 | 1010.1 |
| 20260506023206 | 58 | 15 | 0.0 | 0.0 | 0.00 | 0.04 | 0.04 | 90 | 1010.1 |
| 20260506022705 | 58 | 15 | 0.0 | 0.0 | 0.00 | 0.04 | 0.04 | 90 | 1010.4 |
| 20260506022208 | 58 | 15 | 0.0 | 2.0 | 0.00 | 0.04 | 0.04 | 90 | 1010.0 |
| 20260506021706 | 58 | 15 | 2.0 | 4.0 | 0.00 | 0.04 | 0.04 | 90 | 1010.2 |
| 20260506021206 | 58 | 15 | 2.0 | 4.0 | 0.00 | 0.04 | 0.04 | 90 | 1010.3 |
| 20260506020707 | 59 | 318 | 1.0 | 4.0 | 0.00 | 0.04 | 0.04 | 90 | 1010.3 |
| 20260506020206 | 59 | 355 | 0.0 | 3.0 | 0.00 | 0.04 | 0.04 | 90 | 1010.1 |
| 20260506015706 | 59 | 355 | 0.0 | 0.0 | 0.00 | 0.04 | 0.04 | 90 | 1010.1 |
| 20260506015206 | 59 | 355 | 0.0 | 1.0 | 0.00 | 0.04 | 0.04 | 89 | 1010.0 |
| 20260506014706 | 59 | 355 | 0.0 | 1.0 | 0.00 | 0.04 | 0.04 | 89 | 1010.0 |
| 20260506014206 | 59 | 355 | 0.0 | 2.0 | 0.00 | 0.04 | 0.04 | 89 | 1009.6 |
| 20260506013707 | 59 | 355 | 0.0 | 2.0 | 0.00 | 0.04 | 0.04 | 89 | 1009.5 |
| 20260506013206 | 59 | 355 | 0.0 | 1.0 | 0.00 | 0.04 | 0.04 | 89 | 1009.4 |
| 20260506012707 | 59 | 355 | 0.0 | 0.0 | 0.00 | 0.04 | 0.04 | 89 | 1009.4 |
| 20260506012206 | 59 | 355 | 0.0 | 2.0 | 0.00 | 0.04 | 0.04 | 89 | 1009.5 |
| 20260506011706 | 59 | 355 | 1.0 | 3.0 | 0.00 | 0.04 | 0.04 | 89 | 1009.3 |
| 20260506011205 | 60 | 355 | 1.0 | 3.0 | 0.00 | 0.04 | 0.04 | 89 | 1009.4 |
| 20260506010706 | 60 | 355 | 1.0 | 2.0 | 0.00 | 0.04 | 0.04 | 88 | 1009.5 |
| 20260506010205 | 60 | 355 | 1.0 | 3.0 | 0.00 | 0.04 | 0.04 | 88 | 1009.4 |
| 20260506005705 | 60 | 355 | 2.0 | 4.0 | 0.00 | 0.04 | 0.04 | 88 | 1009.4 |
| 20260506005205 | 60 | 355 | 2.0 | 4.0 | 0.00 | 0.04 | 0.04 | 87 | 1009.3 |
| 20260506004204 | 61 | 355 | 1.0 | 3.0 | 0.00 | 0.04 | 0.04 | 85 | 1009.3 |
| 20260506003705 | 61 | 355 | 2.0 | 4.0 | 0.00 | 0.04 | 0.04 | 84 | 1009.2 |
| 20260506003201 | 62 | 355 | 2.0 | 4.0 | 0.00 | 0.04 | 0.04 | 83 | 1009.1 |
| 20260506002700 | 62 | 106 | 1.0 | 3.0 | 0.00 | 0.04 | 0.04 | 82 | 1009.1 |
| 20260506002159 | 63 | 107 | 1.0 | 2.0 | 0.00 | 0.04 | 0.04 | 80 | 1009.2 |
| 20260506001659 | 64 | 108 | 0.0 | 3.0 | 0.00 | 0.04 | 0.04 | 78 | 1009.1 |
| 20260506001159 | 64 | 108 | 1.0 | 3.0 | 0.00 | 0.04 | 0.04 | 76 | 1009.0 |
| 20260506000700 | 64 | 84 | 1.0 | 4.0 | 0.00 | 0.04 | 0.04 | 75 | 1009.0 |
| 20260506000158 | 63 | 84 | 1.0 | 4.0 | 0.00 | 0.04 | 0.04 | 76 | 1009.1 |
| 20260505235657 | 64 | 239 | 1.0 | 2.0 | 0.00 | 0.04 | 0.04 | 77 | 1009.2 |
| 20260505235158 | 64 | 240 | 1.0 | 5.0 | 0.00 | 0.04 | 0.04 | 77 | 1009.1 |
| 20260505234657 | 63 | 194 | 2.0 | 5.0 | 0.00 | 0.04 | 0.04 | 78 | 1009.1 |
| 20260505233657 | 63 | 342 | 0.0 | 2.0 | 0.00 | 0.04 | 0.04 | 82 | 1009.1 |
| 20260505233157 | 63 | 9 | 1.0 | 3.0 | 0.00 | 0.04 | 0.04 | 83 | 1008.8 |
| 20260505232657 | 63 | 9 | 2.0 | 5.0 | 0.00 | 0.04 | 0.04 | 82 | 1008.7 |
| 20260505232158 | 64 | 9 | 2.0 | 5.0 | 0.00 | 0.04 | 0.04 | 82 | 1008.6 |
| 20260505231658 | 64 | 5 | 2.0 | 5.0 | 0.00 | 0.04 | 0.04 | 78 | 1008.5 |
| 20260505231155 | 64 | 166 | 1.0 | 5.0 | 0.00 | 0.04 | 0.04 | 74 | 1008.4 |
| 20260505230655 | 64 | 62 | 2.0 | 6.0 | 0.00 | 0.04 | 0.04 | 74 | 1008.4 |
| 20260505230155 | 63 | 163 | 2.0 | 6.0 | 0.00 | 0.04 | 0.04 | 78 | 1008.4 |
| 20260505225155 | 63 | 167 | 2.0 | 5.0 | 0.00 | 0.04 | 0.04 | 84 | 1008.2 |
| 20260505224655 | 63 | 167 | 2.0 | 5.0 | 0.00 | 0.04 | 0.04 | 85 | 1008.4 |
| 20260505224155 | 63 | 54 | 2.0 | 5.0 | 0.00 | 0.04 | 0.04 | 84 | 1008.4 |
| 20260505223655 | 63 | 53 | 2.0 | 5.0 | 0.00 | 0.04 | 0.04 | 84 | 1008.3 |
| 20260505223155 | 64 | 5 | 2.0 | 4.0 | 0.00 | 0.04 | 0.04 | 83 | 1008.2 |
| 20260505222153 | 63 | 169 | 2.0 | 5.0 | 0.00 | 0.04 | 0.04 | 82 | 1008.2 |
| 20260505221655 | 63 | 165 | 2.0 | 5.0 | 0.00 | 0.04 | 0.04 | 83 | 1008.2 |
| 20260505221153 | 63 | 110 | 0.0 | 3.0 | 0.00 | 0.04 | 0.04 | 83 | 1008.4 |
| 20260505220653 | 63 | 79 | 0.0 | 2.0 | 0.00 | 0.04 | 0.04 | 83 | 1008.4 |
| 20260505220154 | 63 | 79 | 1.0 | 3.0 | 0.00 | 0.04 | 0.04 | 83 | 1008.6 |
| 20260505215653 | 63 | 79 | 1.0 | 4.0 | 0.00 | 0.04 | 0.04 | 83 | 1008.5 |
| 20260505215152 | 63 | 5 | 2.0 | 4.0 | 0.00 | 0.04 | 0.04 | 84 | 1008.1 |
| 20260505214152 | 63 | 343 | 2.0 | 6.0 | 0.00 | 0.04 | 0.04 | 84 | 1007.8 |
| 20260505213651 | 64 | 42 | 2.0 | 6.0 | 0.00 | 0.04 | 0.04 | 83 | 1007.8 |
| 20260505213152 | 64 | 343 | 3.0 | 8.0 | 0.00 | 0.04 | 0.04 | 82 | 1007.9 |
| 20260505212650 | 65 | 49 | 3.0 | 8.0 | 0.00 | 0.04 | 0.04 | 81 | 1007.7 |
| 20260505212151 | 66 | 355 | 3.0 | 8.0 | 0.00 | 0.04 | 0.04 | 78 | 1007.8 |
| 20260505211651 | 67 | 342 | 2.0 | 7.0 | 0.00 | 0.04 | 0.04 | 72 | 1007.8 |
| 20260505211152 | 66 | 193 | 3.0 | 9.0 | 0.00 | 0.04 | 0.04 | 71 | 1007.9 |
| 20260505210650 | 66 | 136 | 3.0 | 9.0 | 0.00 | 0.04 | 0.04 | 72 | 1007.9 |
| 20260505205651 | 65 | 148 | 2.0 | 6.0 | 0.01 | 0.04 | 0.04 | 74 | 1007.9 |
| 20260505204649 | 65 | 215 | 3.0 | 9.0 | 0.03 | 0.04 | 0.04 | 75 | 1007.9 |
| 20260505204149 | 65 | 214 | 3.0 | 9.0 | 0.03 | 0.04 | 0.04 | 75 | 1007.9 |
| 20260505203648 | 65 | 200 | 3.0 | 7.0 | 0.03 | 0.04 | 0.04 | 75 | 1007.4 |
| 20260505202650 | 65 | 153 | 3.0 | 7.0 | 0.04 | 0.04 | 0.04 | 77 | 1007.1 |
| 20260505202149 | 65 | 148 | 3.0 | 8.0 | 0.04 | 0.04 | 0.04 | 78 | 1007.2 |
| 20260505201650 | 65 | 166 | 3.0 | 8.0 | 0.04 | 0.04 | 0.04 | 78 | 1007.2 |
| 20260505201147 | 65 | 196 | 3.0 | 5.0 | 0.04 | 0.04 | 0.04 | 79 | 1007.1 |
| 20260505200646 | 65 | 127 | 3.0 | 6.0 | 0.04 | 0.04 | 0.04 | 78 | 1007.1 |
| 20260505195645 | 67 | 233 | 7.0 | 26.0 | 0.03 | 0.03 | 0.03 | 72 | 1007.3 |
| 20260505195145 | 70 | 271 | 5.0 | 26.0 | 0.01 | 0.01 | 0.01 | 65 | 1007.7 |
| 20260505194143 | 71 | 178 | 3.0 | 14.0 | 0.01 | 0.01 | 0.01 | 60 | 1005.5 |
| 20260505192643 | 77 | 236 | 7.0 | 24.0 | 0.00 | 0.00 | 0.00 | 46 | 1005.0 |
| 20260505192143 | 79 | 246 | 6.0 | 24.0 | 0.00 | 0.00 | 0.00 | 39 | 1004.9 |
| 20260505191141 | 79 | 139 | 7.0 | 20.0 | 0.00 | 0.00 | 0.00 | 37 | 1004.2 |
| 20260505190641 | 80 | 263 | 8.0 | 20.0 | 0.00 | 0.00 | 0.00 | 38 | 1004.5 |
| 20260505190140 | 80 | 202 | 7.0 | 16.0 | 0.00 | 0.00 | 0.00 | 37 | 1004.1 |
| 20260505185640 | 80 | 167 | 6.0 | 19.0 | 0.00 | 0.00 | 0.00 | 37 | 1004.1 |
| 20260505185141 | 80 | 178 | 5.0 | 19.0 | 0.00 | 0.00 | 0.00 | 37 | 1004.2 |
| 20260505184641 | 80 | 297 | 5.0 | 13.0 | 0.00 | 0.00 | 0.00 | 37 | 1004.2 |
| 20260505184141 | 80 | 182 | 6.0 | 21.0 | 0.00 | 0.00 | 0.00 | 37 | 1004.3 |
| 20260505183640 | 80 | 80 | 6.0 | 21.0 | 0.00 | 0.00 | 0.00 | 37 | 1004.3 |
| 20260505183140 | 79 | 150 | 5.0 | 17.0 | 0.00 | 0.00 | 0.00 | 38 | 1004.4 |
| 20260505182641 | 79 | 68 | 6.0 | 17.0 | 0.00 | 0.00 | 0.00 | 38 | 1004.4 |
| 20260505182142 | 79 | 208 | 7.0 | 17.0 | 0.00 | 0.00 | 0.00 | 39 | 1004.6 |
| 20260505181640 | 79 | 206 | 7.0 | 17.0 | 0.00 | 0.00 | 0.00 | 37 | 1004.5 |
| 20260505180642 | 80 | 204 | 8.0 | 18.0 | 0.00 | 0.00 | 0.00 | 37 | 1005.0 |
| 20260505180140 | 80 | 191 | 7.0 | 22.0 | 0.00 | 0.00 | 0.00 | 37 | 1004.9 |
| 20260505175640 | 79 | 197 | 8.0 | 22.0 | 0.00 | 0.00 | 0.00 | 37 | 1004.9 |
| 20260505175141 | 80 | 129 | 8.0 | 19.0 | 0.00 | 0.00 | 0.00 | 37 | 1004.9 |
| 20260505174640 | 80 | 276 | 7.0 | 18.0 | 0.00 | 0.00 | 0.00 | 36 | 1005.0 |
| 20260505174141 | 80 | 236 | 6.0 | 18.0 | 0.00 | 0.00 | 0.00 | 37 | 1005.0 |
| 20260505173640 | 81 | 269 | 5.0 | 17.0 | 0.00 | 0.00 | 0.00 | 37 | 1005.0 |
| 20260505173140 | 80 | 202 | 7.0 | 19.0 | 0.00 | 0.00 | 0.00 | 36 | 1004.9 |
| 20260505172638 | 80 | 196 | 9.0 | 21.0 | 0.00 | 0.00 | 0.00 | 38 | 1005.1 |
| 20260505172140 | 80 | 208 | 8.0 | 21.0 | 0.00 | 0.00 | 0.00 | 36 | 1005.1 |
| 20260505171636 | 80 | 243 | 7.0 | 16.0 | 0.00 | 0.00 | 0.00 | 37 | 1005.3 |
| 20260505171134 | 80 | 143 | 7.0 | 16.0 | 0.00 | 0.00 | 0.00 | 37 | 1005.2 |
| 20260505170632 | 80 | 202 | 7.0 | 16.0 | 0.00 | 0.00 | 0.00 | 38 | 1005.3 |
| 20260505170130 | 80 | 337 | 6.0 | 14.0 | 0.00 | 0.00 | 0.00 | 39 | 1005.3 |
| 20260505165630 | 79 | 146 | 5.0 | 12.0 | 0.00 | 0.00 | 0.00 | 39 | 1005.3 |
| 20260505165131 | 79 | 202 | 5.0 | 13.0 | 0.00 | 0.00 | 0.00 | 40 | 1005.5 |
| 20260505164630 | 79 | 205 | 5.0 | 16.0 | 0.00 | 0.00 | 0.00 | 41 | 1005.5 |
| 20260505164129 | 78 | 149 | 6.0 | 16.0 | 0.00 | 0.00 | 0.00 | 42 | 1005.7 |
| 20260505163628 | 77 | 205 | 7.0 | 20.0 | 0.00 | 0.00 | 0.00 | 41 | 1006.0 |
| 20260505163130 | 77 | 216 | 7.0 | 20.0 | 0.00 | 0.00 | 0.00 | 42 | 1006.1 |
| 20260505162629 | 78 | 199 | 6.0 | 18.0 | 0.00 | 0.00 | 0.00 | 42 | 1006.3 |
| 20260505162126 | 77 | 183 | 6.0 | 15.0 | 0.00 | 0.00 | 0.00 | 43 | 1006.3 |
| 20260505161625 | 77 | 252 | 6.0 | 15.0 | 0.00 | 0.00 | 0.00 | 44 | 1006.5 |
| 20260505161127 | 76 | 217 | 7.0 | 17.0 | 0.00 | 0.00 | 0.00 | 44 | 1006.7 |
| 20260505160626 | 76 | 215 | 6.0 | 17.0 | 0.00 | 0.00 | 0.00 | 46 | 1006.7 |
| 20260505153125 | 74 | 137 | 5.0 | 15.0 | 0.00 | 0.00 | 0.00 | 49 | 1007.3 |
| 20260505152625 | 74 | 198 | 5.0 | 15.0 | 0.00 | 0.00 | 0.00 | 49 | 1007.6 |
| 20260505151625 | 73 | 80 | 5.0 | 13.0 | 0.00 | 0.00 | 0.00 | 51 | 1007.7 |
| 20260505151124 | 72 | 236 | 5.0 | 13.0 | 0.00 | 0.00 | 0.00 | 52 | 1007.7 |
| 20260505150123 | 71 | 171 | 3.0 | 11.0 | 0.00 | 0.00 | 0.00 | 54 | 1007.7 |